• Join FlightAware (Why Join?)
  • Login
  • US Flag 
08:40AM EST


 

Airport Tracker/Info


-or-


 

Live Flight TrackerFlight Track Log ✈ JBU33 ✈ 20-Aug-2013 ✈ KBTV - KJFK

Flight Track Log - Related Links

Times and Time Zones

All times are in EDT time to prevent confusion due to time zone crossing. See the JBU33 flight status page for this flight to view local times or setup timezone preferences in your user account.

Time Position Orientation Groundspeed Altitude Reporting Facility
EDT Latitude Longitude Course Direction KTS MPH feet Rate Location/Type
01:18PM 44.4367 -73.1000 194° South 170 196 1,900  Level Boston Center
01:19PM 44.3844 -73.0850 168° South 200 230 4,500 2,607 Climbing Boston Center
01:20PM 44.3219 -73.1161 200° South 250 288 7,200 2,797 Climbing Boston Center
01:21PM 44.2467 -73.1500 198° South 275 316 10,000 1,424 Climbing Boston Center
01:22PM 44.0552 -73.3038 194° South  Level FlightAware Approximate
01:22PM 44.1547 -73.1894 197° South 327 376 10,000  Level Boston Center
01:23PM 43.9720 -73.3316 194° South  Level FlightAware Approximate
01:23PM 44.0628 -73.2317 198° South 349 402 11,900  Level Boston Center
01:24PM 43.9708 -73.2739 198° South 354 407 14,600 2,557 Climbing Boston Center
01:25PM 43.8725 -73.3186 198° South 364 419 17,100 2,380 Climbing Boston Center
01:26PM 43.7722 -73.3631 198° South 378 435 19,400 2,085 Climbing Boston Center
01:27PM 43.6592 -73.4158 199° South 390 449 21,200 2,034 Climbing Boston Center
01:28PM 43.5589 -73.4544 196° South 397 457 23,400 1,884 Climbing Boston Center
01:29PM 43.4458 -73.5011 197° South 411 473 25,000 1,525 Climbing Boston Center
01:30PM 43.3286 -73.5533 198° South 429 494 26,500 1,373 Climbing Boston Center
01:31PM 43.2094 -73.6022 197° South 447 514 27,700 763 Climbing Boston Center
01:32PM 43.0733 -73.6650 199° South 466 536 28,000 149 Climbing Boston Center
01:33PM 42.9456 -73.7192 197° South 466 536 28,000  Level Boston Center
01:34PM 42.8242 -73.7706 197° South 466 536 28,000  Level Boston Center
01:35PM 42.6964 -73.8044 191° South 466 536 28,000  Level Boston Center
01:36PM 42.5797 -73.8103 182° South 466 536 28,000  Level Boston Center
01:37PM 42.4525 -73.8133 181° South 466 536 28,000  Level Boston Center
01:38PM 42.3211 -73.8161 181° South 466 536 28,000  Level Boston Center
01:39PM 42.1919 -73.8189 181° South 466 536 28,000  Level Boston Center
01:40PM 42.0647 -73.8217 181° South 461 531 28,000  Level Boston Center
01:41PM 41.9356 -73.8242 181° South 461 531 28,000 -838 Level Boston Center
01:43PM 41.6942 -73.9242 197° South 451 519 25,500 -1,508 Descending New York Center
01:44PM 41.5825 -73.9744 199° South 444 511 23,500 -1,950 Descending New York Center
01:45PM 41.4708 -74.0244 199° South 432 497 21,600 -1,750 Descending New York Center
01:46PM 41.3592 -74.0686 197° South 427 491 20,000 -800 Descending New York Center
01:47PM 41.2400 -74.0850 186° South 427 491 20,000 -200 Level New York Center
01:48PM 41.1228 -74.1039 187° South 427 491 19,600 -500 Descending New York Center
01:49PM 40.9953 -74.1250 187° South 427 491 19,000 -387 Descending New York Center
01:50PM 40.9333 -74.1167 174° South 395 455 19,000  Level New York TRACON
01:51PM 40.8500 -74.0500 149° Southeast 354 407 19,000 -650 Level New York TRACON
01:52PM 40.7667 -74.0000 156° South 348 400 17,700 -1,600 Descending New York TRACON
01:53PM 40.6667 -73.9833 173° South 344 396 15,800 -1,900 Descending New York TRACON
01:54PM 40.5833 -73.9500 163° South 336 387 13,900 -1,750 Descending New York TRACON
01:55PM 40.4833 -73.9167 166° South 317 365 12,300 -1,700 Descending New York TRACON
01:56PM 40.4000 -73.8833 163° South 305 351 10,500 -1,632 Descending New York TRACON
01:57PM 40.3333 -73.8667 169° South 295 339 9,200 -1,300 Descending New York TRACON
01:58PM 40.2500 -73.8167 155° Southeast 304 350 7,900 -1,048 Descending New York TRACON
01:59PM 40.2500 -73.7167 90° East 291 335 7,000 -900 Descending New York TRACON
02:00PM 40.2833 -73.6167 66° East 293 337 6,100 -1,000 Descending New York TRACON
02:01PM 40.3500 -73.5667 30° Northeast 271 312 5,000 -1,050 Descending New York TRACON
02:02PM 40.4167 -73.5333 21° North 265 305 4,000 -500 Descending New York TRACON
02:03PM 40.4833 -73.4833 30° Northeast 265 305 4,000  Level New York TRACON
02:04PM 40.5500 -73.4333 30° Northeast 265 305 4,000  Level New York TRACON
02:05PM 40.6167 -73.4167 11° North 259 298 4,000 -50 Level New York TRACON
02:06PM 40.6833 -73.4167 360° North 261 300 3,900 -500 Descending New York TRACON
02:07PM 40.7667 -73.4333 351° North 257 296 3,000 -500 Descending New York TRACON
02:08PM 40.8167 -73.4500 346° North 205 236 2,900 -450 Descending New York TRACON
02:09PM 40.8500 -73.5000 311° West 188 216 2,100 -450 Descending New York TRACON
02:10PM 40.8333 -73.5667 252° West 162 186 2,000 -50 Descending New York TRACON
02:11PM 40.8167 -73.6167 246° West 166 191 2,000  Level New York TRACON
02:12PM 40.7833 -73.6500 217° Southwest 168 193 2,000  Level New York TRACON
02:13PM 40.7333 -73.6833 207° Southwest 169 194 2,000 -400 Level New York TRACON
02:14PM 40.7000 -73.7167 217° Southwest 164 189 1,200 -750 Descending New York TRACON
02:15PM 40.6667 -73.7333 201° Southwest 133 153 500 -700 Descending New York TRACON